EW1836 Weather Reports


Display with metric or nautical units.
time (UTC)temp
F
wind
direction
speed
MPH
gust
MPH
rain 1hr
in
rain 24hr
in
rain mn
in
humidity
%
barometer
mb
20260906104511 70 96 0.0 0.0 0.00 0.00 0.00 91 1012.8
20260906103014 70 96 0.0 0.0 0.00 0.00 0.00 91 1012.7
20260906101510 70 96 0.0 0.0 0.00 0.00 0.00 90 1012.6
20260906100014 70 96 0.0 0.0 0.00 0.00 0.00 90 1012.6
20260906094507 70 96 0.0 0.0 0.00 0.00 0.00 90 1012.6
20260906093007 70 96 0.0 0.0 0.00 0.00 0.00 90 1012.5
20260906091505 70 96 0.0 0.0 0.00 0.00 0.00 90 1012.3
20260906090005 71 96 0.0 0.0 0.00 0.00 0.00 90 1012.2
20260906084509 71 96 0.0 0.0 0.00 0.00 0.00 90 1012.1
20260906083003 71 96 0.0 0.0 0.00 0.00 0.00 90 1012.1
20260906081502 71 96 0.0 0.0 0.00 0.00 0.00 90 1012.1
20260906080002 71 96 0.0 0.0 0.00 0.00 0.00 90 1012.3
20260906074600 71 96 0.0 0.0 0.00 0.00 0.00 89 1012.2
20260906073059 71 96 0.0 0.0 0.00 0.00 0.00 90 1012.2
20260906071558 71 96 0.0 0.0 0.00 0.00 0.00 89 1012.1
20260906070057 72 96 0.0 0.0 0.00 0.00 0.00 89 1012.1
20260906064555 72 96 0.0 0.0 0.00 0.00 0.00 88 1012.2
20260906063053 72 96 0.0 0.0 0.00 0.00 0.00 89 1012.2
20260906061553 72 96 0.0 0.0 0.00 0.00 0.00 88 1012.4
20260906060109 72 96 0.0 0.0 0.00 0.00 0.00 88 1012.5
20260906054555 72 96 0.0 0.0 0.00 0.00 0.00 88 1012.5
20260906053047 73 96 0.0 0.0 0.00 0.00 0.00 87 1012.7
20260906051545 73 96 0.0 0.0 0.00 0.00 0.00 87 1012.9
20260906050042 73 96 0.0 0.0 0.00 0.00 0.00 86 1013.0
20260906044538 74 96 0.0 0.0 0.00 0.00 0.00 86 1013.2
20260906043038 74 96 0.0 0.0 0.00 0.00 0.00 85 1013.0
20260906041538 75 96 0.0 0.0 0.00 0.00 0.00 84 1012.9
20260906040037 75 96 0.0 0.0 0.00 0.00 0.00 84 1013.0
20260906034552 76 96 0.0 0.0 0.00 0.00 0.00 83 1013.1
20260906033039 76 96 0.0 0.0 0.00 0.00 0.00 83 1013.2
20260906031536 77 96 0.0 0.0 0.00 0.00 0.00 84 1013.4
20260906030036 77 96 0.0 0.0 0.00 0.00 0.00 85 1013.4
20260906024536 78 96 0.0 0.0 0.00 0.00 0.00 85 1013.1
20260906023033 78 96 0.0 0.0 0.00 0.00 0.00 85 1013.2
20260906021539 78 96 0.0 0.0 0.00 0.00 0.00 85 1013.4
20260906020031 79 96 0.0 0.0 0.00 0.00 0.00 84 1013.4
20260906014530 79 97 0.0 0.0 0.00 0.00 0.00 83 1013.3
20260906013029 80 97 0.0 0.0 0.00 0.00 0.00 82 1012.5
20260906011529 81 97 0.0 0.0 0.00 0.00 0.00 81 1012.5
20260906010028 81 97 0.0 0.0 0.00 0.00 0.00 80 1012.6
20260906004525 82 98 0.0 1.0 0.00 0.00 0.00 78 1012.1
20260906003025 83 97 0.0 0.0 0.00 0.00 0.00 77 1011.6
20260906001541 84 58 0.0 3.0 0.00 0.00 0.00 77 1011.1
20260906000024 84 32 0.0 4.0 0.00 0.00 0.00 75 1010.9
20260905234521 85 273 0.0 0.0 0.00 0.00 0.00 81 1011.3
20260905233023 86 273 0.0 0.0 0.00 0.00 0.00 79 1010.7
20260905231523 87 273 0.0 0.0 0.00 0.00 0.00 77 1010.7
20260905230022 88 273 0.0 0.0 0.00 0.00 0.00 75 1010.6
20260905224521 89 273 0.0 0.0 0.00 0.00 0.00 72 1010.8
20260905223030 91 273 0.0 0.0 0.00 0.00 0.00 69 1010.7
20260905221520 92 273 0.0 0.0 0.00 0.00 0.00 67 1010.7
20260905220015 94 273 0.0 0.0 0.00 0.00 0.00 63 1010.8
20260905214515 96 244 0.0 0.0 0.00 0.00 0.00 60 1010.6
20260905213013 96 244 0.0 0.0 0.00 0.00 0.00 59 1010.7
20260905211512 95 246 0.0 0.0 0.00 0.00 0.00 57 1010.8
20260905210010 94 246 0.0 0.0 0.00 0.00 0.00 65 1010.9
20260905204509 93 246 0.0 2.0 0.00 0.00 0.00 58 1011.1
20260905203007 93 172 0.0 0.0 0.00 0.00 0.00 63 1011.2
20260905201505 93 172 0.0 2.0 0.00 0.00 0.00 65 1011.3
20260905200004 93 201 0.0 0.0 0.00 0.00 0.00 67 1011.7
20260905194502 95 201 0.0 0.0 0.00 0.00 0.00 62 1012.0
20260905193004 96 201 0.0 3.0 0.00 0.00 0.00 55 1011.9
20260905191600 97 355 0.0 2.0 0.00 0.00 0.00 59 1011.9
20260905190057 97 355 0.0 1.0 0.00 0.00 0.00 61 1012.3
20260905184601 97 355 0.0 2.0 0.00 0.00 0.00 54 1012.6
20260905183052 97 355 0.0 3.0 0.00 0.00 0.00 54 1012.9
20260905181550 96 355 0.0 1.0 0.00 0.00 0.00 58 1012.9
20260905180048 95 355 1.0 4.0 0.00 0.00 0.00 55 1013.1
20260905174542 95 234 0.0 5.0 0.00 0.00 0.00 60 1013.3
20260905173046 94 296 0.0 5.0 0.00 0.00 0.00 62 1013.5
20260905171538 93 335 1.0 4.0 0.00 0.00 0.00 64 1013.8
20260905170034 91 323 0.0 4.0 0.00 0.00 0.00 63 1014.0
20260905164529 90 137 0.0 3.0 0.00 0.00 0.00 69 1014.2
20260905163023 88 346 1.0 4.0 0.00 0.00 0.00 70 1014.3
20260905161521 87 280 0.0 4.0 0.00 0.00 0.00 80 1014.4
20260905160018 86 348 1.0 5.0 0.00 0.00 0.00 74 1014.5
20260905154515 85 19 0.0 0.0 0.00 0.00 0.00 80 1014.6
20260905153024 84 19 0.0 0.0 0.00 0.00 0.00 82 1014.7
20260905151508 82 27 0.0 1.0 0.00 0.00 0.00 85 1014.9
20260905150004 79 31 0.0 4.0 0.00 0.00 0.00 91 1014.8
20260905144600 77 294 0.0 0.0 0.00 0.00 0.00 93 1014.9
20260905143056 76 288 0.0 1.0 0.00 0.00 0.00 94 1015.0
20260905141552 75 288 0.0 3.0 0.00 0.00 0.00 95 1015.0
20260905140050 74 16 0.0 0.0 0.00 0.00 0.00 95 1015.1
20260905134548 73 16 0.0 0.0 0.00 0.00 0.00 95 1015.2
20260905133046 72 16 0.0 0.0 0.00 0.00 0.00 95 1015.3
20260905131555 71 16 0.0 0.0 0.00 0.00 0.00 94 1015.4
20260905130044 70 16 0.0 0.0 0.00 0.00 0.00 93 1015.5
20260905124542 70 16 0.0 0.0 0.00 0.00 0.00 93 1015.5
20260905123102 69 16 0.0 0.0 0.00 0.00 0.00 92 1015.5
20260905121538 69 16 0.0 0.0 0.00 0.00 0.00 92 1015.4
20260905120037 69 16 0.0 0.0 0.00 0.00 0.00 92 1015.3
20260905114538 69 16 0.0 0.0 0.00 0.00 0.00 92 1015.2
20260905113034 69 16 0.0 0.0 0.00 0.00 0.00 91 1015.1
20260905111533 69 16 0.0 0.0 0.00 0.00 0.00 91 1014.8
20260905110034 69 16 0.0 0.0 0.00 0.00 0.00 91 1014.6